Location: Newark
(44.3248°N, 23.7839°E)
Time: 23:09:34
(UTC+00:00)

PCSat - Pass Details

Date: 22 April 2024
Orbit: 783 x 792 km, 67.1° (Epoch: 21 May)

Event Time Altitude Azimuth Distance (km) Brightness Sun altitude
Rises 00:58:38 0° 335° (NNW) 3,299 13.1 -23.3°
Reaches altitude 10° 01:01:31 10° 349° (N) 2,367 12.5 -23.0°
Maximum altitude 01:05:54 24° 43° (NE) 1,583 11.9 -22.4°
Drops below altitude 10° 01:10:17 10° 97° (E) 2,358 12.5 -21.9°
Sets 01:13:08 0° 111° (ESE) 3,284 13.1 -21.5°
